{"data":{"norad_id":45693,"intl_designator":"2020-035AN","name":"STARLINK-1417","alt_names":[],"object_type":"PAYLOAD","status":"ACTIVE","operator":null,"country":"US","launch_date":"2020-06-04","launch_site_code":"AFETR","launch_vehicle":null,"mission":null,"orbit_class":"UNKNOWN","rcs_meters":null,"size_class":null,"mass_kg":null,"dimensions":null,"purposes":["comms"],"wikipedia_slug":null,"has_3d_model":false,"image_url":null,"decayed_at":null,"tle_current":{"epoch":"2026-05-25T02:05:30.635232Z","epoch_age_seconds":60669,"freshness":"FRESH","line1":"1 45693U 20035AN  26145.08716013  .00021762  00000+0  11311-2 0  9997","line2":"2 45693  53.0502  67.0533 0006124  92.0413 268.1281 15.16019238330471","mean_motion":15.16019238,"eccentricity":0.0006124,"inclination_deg":53.0502,"raan_deg":67.0533,"arg_perigee_deg":92.0413,"mean_anomaly_deg":268.1281,"bstar":0.0011311,"rev_number":33047,"period_min":94.985602023079,"perigee_km":513.66284996032,"apogee_km":522.1090988994,"semimajor_km":6896.0229744299,"source":"CELESTRAK","updated_at":"2026-05-25T13:38:16.429711Z"}}}